This is the latest recevied weather packets stored in our database for station/object HUGOCO. If no packets are shown the sender has not sent any weather packets the latest 10 day(s).
| Time | Temp. | Humidity | Pressure | Rain* | Wind** | Luminosity | Snow |
|---|---|---|---|---|---|---|---|
| 1777493177 | 11.67° C | 48% | 1020.9 hPa | 0 mm | - | - | - |
| 1777492877 | 11.67° C | 48% | 1020.7 hPa | 0 mm | - | - | - |
| 1777492577 | 11.67° C | 49% | 1020.8 hPa | 0 mm | - | - | - |
| 1777492277 | 11.11° C | 50% | 1020.5 hPa | 0 mm | - | - | - |
| 1777491977 | 11.11° C | 52% | 1020.6 hPa | 0 mm | - | - | - |
| 1777491677 | 11.11° C | 51% | 1020.4 hPa | 0 mm | - | - | - |
| 1777491377 | 11.11° C | 51% | 1020.5 hPa | 0 mm | - | - | - |
| 1777491077 | 11.11° C | 53% | 1020.5 hPa | 0 mm | - | - | - |
| 1777490777 | 10.56° C | 53% | 1020.5 hPa | 0 mm | - | - | - |
| 1777490477 | 11.11° C | 53% | 1020.5 hPa | 0 mm | - | - | - |
| 1777490177 | 11.11° C | 54% | 1020.5 hPa | 0 mm | - | - | - |
| 1777489877 | 10.56° C | 55% | 1020.4 hPa | 0 mm | - | - | - |
| 1777489577 | 10.56° C | 53% | 1020.7 hPa | 0 mm | - | - | - |
| 1777489277 | 10.56° C | 56% | 1020.5 hPa | 0 mm | - | - | - |
| 1777488977 | 10.56° C | 57% | 1020.7 hPa | 0 mm | - | - | - |
| 1777488677 | 10° C | 57% | 1020.8 hPa | 0 mm | - | - | - |
| 1777488377 | 10.56° C | 56% | 1020.8 hPa | 0 mm | - | - | - |
| 1777488077 | 10° C | 60% | 1021 hPa | 0 mm | - | - | - |
| 1777487777 | 10° C | 60% | 1021.1 hPa | 0 mm | - | - | - |
| 1777487477 | 10° C | 59% | 1021.2 hPa | 0 mm | - | - | - |
| 1777487177 | 10° C | 59% | 1021.4 hPa | 0 mm | - | - | - |
| 1777486877 | 10° C | 60% | 1021.8 hPa | 0 mm | - | - | - |
| 1777486577 | 10° C | 59% | 1022 hPa | 0 mm | - | - | - |
| 1777486278 | 9.44° C | 62% | 1022 hPa | 0 mm | - | - | - |
| 1777485978 | 9.44° C | 62% | 1022.2 hPa | 0 mm | - | - | - |
* Rain latest hour (hover to see other rain measurements)
** Current wind speed in m/s (hover to see current wind gust speed)